Weather History for Corsicana, TX

Change the Weather History Date:

Sunday, January 1, 2012

  Actual Average (KACT) Record (KACT)
Temperature  
Mean Temperature 49 °F 47 °F  
Max Temperature 59 °F 57 °F 86 °F (2006)
Min Temperature 39 °F 36 °F 15 °F (1979)
Degree Days  
Heating Degree Days 16 19  
Month to date heating degree days 19  
Since 1 July heating degree days 871  
Cooling Degree Days 0 0  
Month to date cooling degree days 0  
Year to date cooling degree days 0  
Moisture  
Dew Point 30 °F    
Average Humidity 47    
Maximum Humidity 77    
Minimum Humidity 32    
Precipitation  
Precipitation 0.00 in 0.07 in 1.39 in (1944)
Month to date precipitation 0.07  
Year to date precipitation 0.07  
Snow  
Snow 0.00 in 0.00 in T in (2002)
Month to date snowfall 0.0  
Since 1 July snowfall 0.1  
Snow Depth -    
Sea Level Pressure  
Sea Level Pressure 30.48 in    
Wind  
Wind Speed 11 mph (NNW)    
Max Wind Speed 17 mph    
Max Gust Speed 29 mph    
Visibility 10 miles    
Events      
T = Trace of Precipitation, MM = Missing Value Source: NWS Daily Summary

Daily Weather History Graph

Daily Weather History Graph

Search for Another Location

Airport:

Trip Planner

Search our weather history database for the weather conditions in past years. The results will help you decide how hot, cold, wet, or windy it might be!

Date:

Astronomy

Jan. 01, 2012 Rise Set
Actual Time 7:26 AM CST 5:32 PM CST
Civil Twilight 6:59 AM CST 5:58 PM CST
Nautical Twilight 6:28 AM CST 6:29 PM CST
Astronomical Twilight 5:58 AM CST 6:59 PM CST
Moon 12:09 PM CST (1/1) 12:36 AM CST (1/1)
Length of Visible Light 10h 59m
Length of Day
10h 05m
First Quarter, 55% of the Moon is Illuminated
Jan 1
First Quarter
Jan 9
Full
Jan 16
Last Quarter
Jan 23
New
Jan 30
First Quarter

Hourly Weather History & Observations

Time (CST) Temp. Windchill Dew Point Humidity Pressure Visibility Wind Dir Wind Speed Gust Speed Precip Events Conditions
12:53 AM 57.9 °F - 32.0 °F 37% 30.17 in 10.0 mi NNW 9.2 mph - N/A   Clear
1:53 AM 55.9 °F - 28.9 °F 36% 30.22 in 10.0 mi NNW 17.3 mph 28.8 mph N/A   Clear
2:53 AM 53.1 °F - 30.0 °F 41% 30.28 in 10.0 mi NNW 13.8 mph - N/A   Clear
3:53 AM 50.0 °F - 33.1 °F 52% 30.32 in 10.0 mi North 15.0 mph 24.2 mph N/A   Clear
4:53 AM 46.9 °F - 33.1 °F 59% 30.35 in 10.0 mi North 9.2 mph - N/A   Clear
6:53 AM 43.0 °F 37.7 °F 32.0 °F 65% 30.41 in 10.0 mi NNW 9.2 mph - N/A   Clear
7:53 AM 39.9 °F 35.1 °F 33.1 °F 77% 30.45 in 10.0 mi WNW 6.9 mph - N/A   Clear
8:53 AM 48.0 °F - 33.1 °F 56% 30.50 in 10.0 mi NW 9.2 mph - N/A   Clear
9:53 AM 51.1 °F - 32.0 °F 48% 30.53 in 10.0 mi North 12.7 mph - N/A   Clear
10:53 AM 53.1 °F - 32.0 °F 45% 30.55 in 10.0 mi NNW 11.5 mph - N/A   Clear
11:53 AM 55.9 °F - 32.0 °F 40% 30.53 in 10.0 mi North 12.7 mph - N/A   Clear
12:53 PM 57.0 °F - 30.9 °F 37% 30.51 in 10.0 mi North 10.4 mph - N/A   Clear
1:53 PM 59.0 °F - 30.0 °F 33% 30.51 in 10.0 mi NNW 9.2 mph - N/A   Clear
2:53 PM 59.0 °F - 30.0 °F 33% 30.50 in 10.0 mi North 12.7 mph - N/A   Clear
4:53 PM 57.0 °F - 27.0 °F 32% 30.53 in 10.0 mi North 10.4 mph - N/A   Clear
5:53 PM 52.0 °F - 28.9 °F 41% 30.54 in 10.0 mi NNW 6.9 mph - N/A   Clear
6:53 PM 48.9 °F - 28.0 °F 44% 30.56 in 10.0 mi NNW 5.8 mph - N/A   Clear
7:53 PM 46.0 °F 42.5 °F 28.9 °F 51% 30.57 in 10.0 mi NNW 6.9 mph - N/A   Clear
8:53 PM 44.1 °F 39.5 °F 28.0 °F 53% 30.59 in 10.0 mi NW 8.1 mph - N/A   Clear
9:53 PM 45.0 °F 40.6 °F 27.0 °F 49% 30.60 in 10.0 mi NNW 8.1 mph - N/A   Clear
10:53 PM 44.1 °F 39.0 °F 27.0 °F 51% 30.61 in 10.0 mi NNW 9.2 mph - N/A   Clear
11:53 PM 44.1 °F 39.5 °F 27.0 °F 51% 30.62 in 10.0 mi NNW 8.1 mph - N/A   Clear